Home > Time Zones > World Clock > Weather > Italy > Rome > Past weeks

Flag for Italy Weather past 2 weeks in Rome, Italy

Now
50 °F

Passing clouds.


Feels Like: 48 °F
Forecast: 45 / 65 °F
Wind: 5 mph from South

Location: Rome / Ciampino

Current Time: Mar 2, 2015 at 2:36:57 AM

Latest Report: Mar 2, 2015 at 1:45 AM


Visibility: N/A

Pressure: 30.12 "Hg

Humidity: 82%

Dew point: 45 °F

Location of RomeLocation

Historic Weather in Rome — Graph

°F

Rome temperature yesterday

Maximum temperature yesterday: 59 °F (at 1:15 PM)
Minimum temperature yesterday: 37 °F (at 6:45 AM)
Average temperature yesterday: 48 °F

Past Weeks' High & Low Weather Summary

 TemperatureHumidityPressure
High63 °F (Feb 17, 2:15 PM)100% (Feb 20, 4:15 AM)30.48 "Hg (Feb 20, 4:15 AM)
Low34 °F (Feb 20, 5:45 AM)34% (Feb 17, 4:45 PM)29.33 "Hg (Feb 22, 1:45 PM)
Average49 °F74%29.89 "Hg
* Reported Feb 15 1:15 AM — Mar 2 1:15 AM, Rome, Weather by CustomWeather, © 2015

Note: Actual official high and low records may vary slightly from our data, if they occured in-between our weather recording intervals... More about our weather records

Advertising

Rome weather history for previous 24 hours

 ConditionsComfort  
Time TempWeatherWind HumidityBarometerVisibility
1:15 AM
Mon, Mar 2
50 °FPassing clouds.3 mph82%30.12 "HgN/A
12:15 AM48 °FPassing clouds.5 mph87%30.12 "HgN/A
11:45 PM
Sun, Mar 1
48 °FPassing clouds.2 mph87%30.12 "HgN/A
11:15 PM48 °FPassing clouds.5 mph87%30.12 "HgN/A
10:45 PM48 °FPassing clouds.3 mph87%30.12 "HgN/A
10:15 PM46 °FPassing clouds.5 mph93%30.12 "HgN/A
9:45 PM46 °FPassing clouds.3 mph93%30.12 "HgN/A
9:15 PM48 °FPassing clouds.3 mph87%30.12 "HgN/A
8:45 PM48 °FPassing clouds.3 mph87%30.12 "HgN/A
8:15 PM48 °FPassing clouds.5 mph87%30.12 "HgN/A
7:45 PM50 °FPassing clouds.2 mph88%30.12 "HgN/A
7:15 PM50 °FPassing clouds.2 mph88%30.09 "HgN/A
6:45 PM52 °FPassing clouds.1 mph77%30.09 "HgN/A
6:15 PM52 °FPassing clouds.1 mph77%30.09 "HgN/A
5:45 PM54 °FPassing clouds.5 mph67%30.09 "HgN/A
5:15 PM55 °FPassing clouds.7 mph63%30.09 "HgN/A
4:45 PM55 °FPassing clouds.7 mph59%30.09 "HgN/A
4:15 PM55 °FPassing clouds.7 mph59%30.07 "HgN/A
3:45 PM57 °FPassing clouds.6 mph55%30.07 "HgN/A
3:15 PM57 °FPassing clouds.7 mph55%30.07 "HgN/A
2:45 PM57 °FPassing clouds.8 mph59%30.07 "HgN/A
2:15 PM59 °FScattered clouds.8 mph51%30.09 "HgN/A
1:45 PM59 °FScattered clouds.8 mph45%30.09 "HgN/A
1:15 PM59 °FScattered clouds.6 mph48%30.09 "HgN/A
12:45 PM57 °FScattered clouds.6 mph55%30.09 "HgN/A
12:15 PM57 °FScattered clouds.6 mph55%30.09 "HgN/A
11:45 AM55 °FScattered clouds.6 mph67%30.09 "HgN/A
11:15 AM55 °FPassing clouds.6 mph72%30.09 "HgN/A
10:45 AM55 °FPassing clouds.5 mph67%30.09 "HgN/A
10:15 AM54 °FPassing clouds.No wind67%30.09 "HgN/A
9:45 AM48 °FClear.No wind76%30.09 "Hg5 mi
9:15 AM46 °FClear.No wind82%30.07 "Hg5 mi
8:45 AM43 °FClear.No wind93%30.07 "Hg5 mi
8:15 AM43 °FClear.No wind93%30.07 "Hg5 mi
7:45 AM39 °FPassing clouds.No wind100%30.07 "Hg5 mi
7:15 AM39 °FPassing clouds.2 mph93%30.07 "Hg5 mi
6:45 AM37 °FPassing clouds.1 mph100%30.07 "Hg5 mi
6:15 AM39 °FClear.No wind87%30.04 "Hg10 mi
5:45 AM39 °FClear.No wind93%30.04 "Hg10 mi
5:15 AM39 °FClear.No wind87%30.04 "Hg10 mi
4:45 AM39 °FClear.No wind93%30.04 "Hg10 mi
4:15 AM39 °FClear.No wind93%30.04 "Hg10 mi
3:45 AM41 °FClear.No wind81%30.04 "Hg10 mi
3:15 AM41 °FClear.No wind87%30.04 "Hg10 mi
2:45 AM41 °FClear.2 mph87%30.04 "Hg10 mi
2:15 AM41 °FClear.No wind93%30.04 "Hg10 mi
Weather by CustomWeather, © 2015

See weather overviewHow to use our weather pages